Regional Weather Roundup
Issued by NWS Kansas City/Pleasant Hill, MO

Home | Current Version | Previous Version | Text Only | Print | Product List | Glossary On
Versions: 1 2 3 4 5 6 7 8 9 10 11 12 13 14 15 16 17 18 19 20 21 22 23 24 25 26 27 28
000
ASUS43 KEAX 170410
RWREAX

WEATHER ROUNDUP FOR EASTERN KANSAS AND NORTHWEST MISSOURI
NATIONAL WEATHER SERVICE KANSAS CITY/PLEASANT HILL MO
1000 PM CST SAT DEC 16 2017

KSZ040-057-103>105-MOZ028-029-037-043-170500-
...KANSAS CITY METROPOLITAN AREA...

CITY           SKY/WX    TMP DP  RH WIND       PRES   REMARKS
K.C. INTL      CLOUDY    46  27  47 S12       29.96R
K.C. DOWNTOWN  CLOUDY    50  27  40 SW7       29.97R
LEES SUMMIT    MOCLDY    49  27  42 S13       29.98R
OLATHE - IXD   CLOUDY    45  27  49 S7        29.98R
OLATHE - OJC   MOCLDY    43  27  53 S7        29.97R
LAWRENCE       CLOUDY    41  28  60 E5        29.96R

$$

MOZ001>008-011>017-020>025-030>033-038>040-044>046-053-054-170500-
...NORTHERN AND CENTRAL MISSOURI...

CITY           SKY/WX    TMP DP  RH WIND       PRES   REMARKS
ST. JOSEPH     PTCLDY    42  29  59 CALM      29.95R
MOSBY          PTCLDY    46  27  46 S5        29.98R
WARRENSBURG    CLOUDY    45  27  49 SE6       30.00R
WHITEMAN AFB   MOCLDY    43  27  53 S9        29.96R
CLINTON        CLOUDY    45  27  49 S6        30.02R
SEDALIA        MOCLDY    48  28  46 S8        30.02R
WARSAW         NOT AVBL
CHILLICOTHE      N/A     39  26  59 S3        29.99R
KIRKSVILLE     CLOUDY    43  29  57 SW5       29.99R

$$

MOZ041-047>049-056>058-063>065-088>090-097-170500-
...EASTERN AND SOUTHERN MISSOURI...

CITY           SKY/WX    TMP DP  RH WIND       PRES   REMARKS
ST. LOUIS INTL CLOUDY    48  29  47 S8        30.05S
SPIRIT OF STL  MOCLDY    42  28  57 VRB3      30.05R
COLUMBIA       CLOUDY    45  25  45 S7        30.02R
JEFFERSON CITY CLOUDY    49  25  39 SE6       30.03R
ROLLA          CLOUDY    46  27  47 S15       30.04S
OSAGE BEACH    CLOUDY    46  26  45 S8        30.05R
SPRINGFIELD    CLOUDY    49  26  41 S12       30.03R
BRANSON        CLOUDY    46  27  46 CALM      30.05F
JOPLIN         CLOUDY    50  28  42 S12       30.01S
WEST PLAINS    CLOUDY    46  28  49 S9        30.10R

$$

IAZ060-094-KSZ022-034>040-054-083-096-NEZ052-066-093-170500-
...KANSAS...SOUTHEAST NEBRASKA AND IOWA...

CITY           SKY/WX    TMP DP  RH WIND       PRES   REMARKS
TOPEKA         CLOUDY    42  27  55 SE3       29.95R
MANHATTAN      CLOUDY    45  26  47 CALM      29.92R
EMPORIA        MOCLDY    46  26  45 SE8       29.93S
CHANUTE        CLOUDY    50  28  42 SE9       29.97S
WICHITA        CLOUDY    53  26  35 S10       29.89S
OMAHA          CLOUDY    35  24  64 N7        29.97R WCI  29
LINCOLN        CLOUDY    34  26  72 N12       29.96R WCI  25
FALLS CITY     PTCLDY    40  25  55 S6        29.93R
LAMONI         PTCLDY    40  26  57 CALM      29.96R
DES MOINES     CLOUDY    38  27  64 NE8       29.96F WCI  32

$$





USA.gov is the U.S. government's official web portal to all federal, state and local government web resources and services.